Theta_e
311 311 310 308 307 307 306 305 303 304 304 305 304 303 304 304 304 303 302 304 304 298 299 297 294 291 292 291 288 288 288 288 285 284 283 285 286 286 282 281 279 279 276 274 275 274 279 285 284 284 288 286 286 285
311 311 310 309 308 307 306 305 304 303 303 304 304 304 303 303 303 303 300 304 303 299 299 296 295 295 294 293 291 288 291 288 289 286 285 287 286 284 284 282 281 281 284 281 283 284 287 286 286 286 287 286 285 285
311 311 310 309 308 307 306 305 304 303 302 303 303 303 303 303 302 300 297 301 300 296 297 296 297 294 294 293 293 289 290 293 292 293 290 285 287 286 282 284 282 284 287 286 285 288 289 288 288 286 287 286 286 286
311 310 310 309 308 307 306 305 304 303 302 302 302 301 300 302 302 300 292 299 298 296 291 293 291 289 293 292 292 293 294 296 297 294 287 285 285 290 287 288 286 286 289 287 286 288 288 290 290 290 287 288 286 285
310 310 309 309 308 307 306 305 304 303 302 301 300 299 301 302 301 297 292 294 300 295 289 292 294 291 291 292 291 292 293 294 292 289 288 286 288 288 285 285 284 286 288 287 288 291 290 291 290 289 288 288 286 285
310 309 309 309 308 307 306 305 304 303 302 301 300 299 301 300 300 292 288 299 300 300 291 287 294 286 289 290 291 290 292 292 293 288 287 289 290 288 281 282 290 289 289 291 292 289 290 289 289 288 289 288 287 286
309 309 309 308 307 307 306 305 304 303 302 300 299 299 299 300 292 287 289 297 301 299 290 286 287 287 287 288 289 290 291 291 292 290 287 289 286 286 278 285 291 293 292 291 289 288 288 289 291 288 288 288 291 285
309 309 308 308 307 306 306 306 304 302 302 300 299 299 298 298 295 290 292 301 301 294 292 285 286 284 286 283 283 289 287 288 289 289 284 285 283 281 280 288 294 296 295 291 290 291 290 287 288 286 286 286 284 283
309 309 308 307 306 306 306 305 303 302 301 299 298 298 293 290 285 287 301 302 299 294 285 285 284 280 284 281 282 285 287 285 287 284 284 285 281 280 286 288 291 294 295 297 295 289 287 288 288 285 285 285 285 284
309 308 308 307 306 306 305 305 303 301 300 298 292 288 279 290 301 300 295 291 290 288 288 284 288 283 283 280 277 282 284 285 283 286 284 281 283 288 289 290 293 294 295 294 287 286 285 286 287 285 286 287 288 286
308 308 307 306 305 305 305 304 302 300 297 288 285 282 290 297 293 290 285 283 284 283 285 286 287 284 286 282 282 286 284 285 282 282 284 281 280 289 292 293 295 295 295 294 296 297 293 293 290 287 286 286 286 285
308 307 306 305 304 304 304 303 301 291 288 290 288 289 287 282 285 282 281 283 282 279 284 285 286 284 281 287 285 285 284 284 281 284 278 278 284 290 291 294 296 298 298 296 295 295 292 290 289 289 288 287 287 286
308 307 306 305 304 304 303 302 298 298 295 288 283 274 275 275 277 277 272 280 280 284 286 286 284 284 283 285 286 285 282 282 284 277 277 280 287 290 294 295 296 297 296 296 296 294 291 290 289 289 289 288 287 285
307 306 305 304 303 303 302 299 299 295 286 276 270 271 275 275 276 274 276 284 286 289 287 288 284 284 286 285 285 282 284 284 277 274 278 284 288 290 292 293 294 295 293 294 294 294 293 291 290 290 290 288 287 285
306 305 304 302 303 302 300 300 298 290 282 272 270 265 269 277 280 280 284 284 288 290 289 286 285 285 284 283 284 284 280 278 277 279 282 288 286 286 287 287 288 290 292 292 292 291 291 291 288 288 287 287 287 286
305 303 299 303 302 300 299 297 291 287 277 272 267 268 275 276 273 280 283 282 286 285 290 287 284 283 283 284 281 278 281 278 277 283 287 286 285 285 285 285 286 288 288 288 290 291 291 288 288 287 285 286 286 285
301 294 302 301 300 299 296 289 285 275 273 274 270 276 276 277 276 274 280 281 284 281 282 284 281 279 283 281 280 284 284 286 286 288 289 286 285 285 286 286 286 286 287 287 287 288 288 288 286 285 284 284 284 284
293 299 301 300 296 293 288 283 276 274 271 274 273 274 276 278 277 278 279 283 280 278 279 274 281 277 273 278 283 285 287 288 289 287 289 291 291 290 287 286 286 286 286 286 286 286 285 285 284 284 284 283 282 281
298 298 299 297 292 285 278 279 274 267 268 271 273 274 276 276 279 280 280 281 281 280 276 275 276 276 278 284 285 286 288 288 287 287 289 290 291 290 288 288 287 286 286 286 286 286 285 284 284 284 283 283 282 282
300 299 297 296 291 282 278 278 277 269 268 274 274 274 275 275 277 279 279 278 278 277 276 275 275 278 282 289 289 289 290 290 289 286 286 289 292 292 291 289 288 286 287 287 287 288 284 283 283 283 282 283 281 281
297 295 294 290 283 280 277 277 276 269 270 274 275 277 275 274 275 275 276 278 277 279 276 277 276 280 283 285 288 289 291 290 289 289 287 287 291 292 289 290 290 289 286 286 286 286 286 284 283 283 284 282 282 283
290 291 285 287 280 278 276 272 271 272 277 273 274 274 271 271 274 276 276 277 277 280 280 281 282 284 284 284 285 286 288 288 288 290 292 292 290 290 290 290 289 288 288 287 286 286 286 284 283 283 282 282 283 283
291 288 282 279 275 272 273 277 267 271 268 266 271 269 267 269 275 279 277 279 280 283 285 285 285 286 285 287 286 285 286 287 287 288 290 291 292 292 291 291 289 288 288 289 288 286 286 288 287 283 283 282 281 282
289 281 277 273 272 270 276 266 263 266 265 265 264 262 264 269 273 274 275 278 281 283 282 284 285 283 283 283 283 285 287 287 287 288 289 289 288 290 291 291 291 289 288 288 288 287 287 286 287 285 284 282 282 282
278 276 276 271 264 265 260 268 267 267 264 263 262 262 265 269 267 268 273 277 277 280 282 281 282 283 282 282 285 286 288 287 286 286 288 289 289 288 288 289 289 290 289 287 287 286 286 286 286 285 283 282 282 282
272 273 269 265 263 265 265 264 267 270 271 263 265 269 270 268 265 268 274 277 277 279 280 281 281 280 280 283 284 281 282 287 290 288 288 288 288 286 287 286 286 288 291 289 288 286 285 285 285 285 284 284 286 283
270 267 264 262 269 269 270 274 275 273 268 266 265 265 267 263 266 274 278 279 280 281 282 282 281 280 279 280 282 282 282 283 284 285 287 287 289 289 288 286 286 290 291 289 288 287 286 286 285 285 284 284 284 284
264 266 269 270 272 274 270 270 268 270 271 271 271 265 267 269 271 277 278 281 283 283 283 283 283 282 281 281 281 281 281 281 281 282 282 282 284 287 287 287 288 290 289 289 289 288 287 286 286 285 284 283 283 285
265 268 273 265 268 269 270 271 272 275 277 274 272 270 272 276 278 278 280 282 282 281 280 280 280 281 281 281 280 280 280 279 277 277 277 278 279 281 283 285 286 286 286 286 290 291 288 287 287 286 285 285 284 284
267 268 268 268 268 268 272 276 276 278 274 275 275 274 274 275 276 278 278 279 279 280 282 282 282 278 278 277 278 279 280 281 281 280 278 278 280 282 281 283 284 285 286 286 285 286 290 290 289 288 286 283 282 282
272 270 269 270 267 271 275 278 278 276 272 273 274 275 276 275 276 278 278 279 279 280 279 278 279 280 279 279 279 279 279 282 282 282 283 283 283 283 282 282 282 284 285 285 285 284 284 285 285 285 284 283 283 284
271 271 270 265 268 274 277 277 275 273 272 272 271 272 273 273 274 276 278 280 280 279 282 282 280 280 282 283 283 283 286 283 283 283 282 283 283 284 284 283 282 284 285 285 284 284 283 283 283 283 283 283 283 282
271 275 275 274 272 272 274 274 270 267 266 266 269 274 275 275 272 276 279 281 282 281 281 281 282 282 282 282 282 283 286 284 284 288 288 289 289 287 284 284 283 284 284 283 283 283 283 283 283 283 283 284 284 283
Wind_Speed
28 26 25 25 23 21 19 16 14 11 7 6 6 4 5 7 9 3 2 2 2 2 4 2 3 4 1 2 6 4 3 2 4 2 5 5 5 8 4 5 9 10 9 5 4 2 11 7 5 10 9 0 5 6
30 29 26 25 24 23 21 19 16 12 9 7 7 4 3 5 7 5 0 2 3 2 3 2 4 2 3 3 4 2 2 4 5 4 1 1 3 2 5 5 2 5 10 9 12 11 4 12 5 6 4 5 6 7
31 30 28 25 24 25 23 21 18 14 11 9 7 6 5 3 4 4 0 1 1 2 4 2 7 3 3 5 3 5 2 2 3 4 4 3 4 5 5 8 4 6 5 4 2 5 11 10 12 5 7 7 6 6
32 31 28 26 25 24 24 23 19 16 13 11 8 4 1 4 1 2 1 0 1 2 3 5 1 3 3 5 5 3 3 2 4 2 3 3 3 3 4 3 4 5 8 6 7 10 5 11 13 12 11 6 6 6
33 31 28 27 26 24 24 24 21 17 15 11 8 5 2 3 2 1 2 3 2 2 2 4 4 4 3 5 7 6 5 3 3 1 2 5 3 2 2 1 4 7 9 7 9 8 4 7 3 9 12 15 11 10
33 31 29 28 26 25 25 24 22 18 16 13 8 6 5 2 3 3 1 3 1 2 1 3 3 3 3 4 4 5 4 3 3 4 5 4 3 5 3 5 8 7 6 7 6 3 6 3 4 6 12 10 10 11
33 32 30 29 27 25 25 24 22 19 16 13 9 6 5 5 3 3 2 2 2 1 1 4 4 3 2 3 1 2 2 2 3 3 4 3 2 5 3 9 7 8 11 9 5 3 5 5 6 7 6 8 11 6
34 33 32 29 27 26 25 25 23 20 17 13 9 6 3 1 2 2 2 4 6 2 1 4 4 3 2 2 2 1 2 2 1 3 1 3 2 2 7 8 14 16 12 7 11 12 5 2 5 6 5 8 8 9
36 34 32 30 28 27 26 26 24 20 17 13 9 6 3 2 2 3 1 4 1 1 3 2 2 4 3 1 1 3 1 2 0 3 4 5 3 10 10 11 10 15 15 21 12 9 7 8 8 8 8 9 10 12
36 36 34 31 29 28 27 27 25 21 17 13 4 3 1 2 1 6 1 3 1 2 2 3 2 3 2 2 2 2 1 3 4 6 3 5 10 8 9 12 10 11 12 8 5 7 7 8 12 12 17 12 14 12
39 38 36 33 31 29 27 27 25 22 13 2 4 3 1 4 2 2 2 4 3 3 4 4 7 4 4 3 3 3 2 3 4 5 5 5 9 15 15 19 20 17 16 15 18 19 11 13 11 13 10 11 10 12
36 36 36 34 31 29 29 28 27 7 5 7 6 5 3 3 1 3 3 3 4 6 3 3 4 4 2 3 2 3 3 3 6 3 2 7 5 9 13 22 28 27 25 22 17 20 11 9 10 13 12 13 15 13
39 39 37 35 33 32 31 30 22 18 12 4 5 5 5 4 4 7 7 4 4 4 3 2 2 0 0 1 2 3 5 6 3 3 8 7 6 7 13 17 21 18 12 11 16 13 10 11 10 14 14 12 14 14
39 39 37 36 33 33 32 29 27 13 6 4 5 6 6 6 6 6 4 3 2 2 1 1 1 2 1 2 3 4 4 1 4 4 8 4 7 13 9 7 8 10 7 11 12 12 14 14 14 14 12 12 14 15
40 39 38 34 34 34 32 29 20 4 4 4 5 6 6 5 2 3 2 2 2 2 2 1 1 2 3 4 4 3 4 7 8 6 3 7 12 11 12 11 11 9 7 7 7 7 10 11 10 10 9 13 14 12
38 35 23 36 35 34 31 23 5 3 4 4 3 2 3 2 2 1 3 2 3 2 1 1 2 3 6 4 4 7 4 5 4 3 4 6 9 11 11 10 10 9 8 8 7 7 7 8 11 9 9 12 13 15
28 3 34 37 37 33 26 6 4 4 5 4 3 2 2 1 3 3 3 3 2 4 3 1 4 8 3 4 5 5 2 3 4 6 6 7 7 11 11 11 11 10 10 8 6 5 4 4 7 7 10 7 9 11
7 25 40 39 28 21 4 4 4 4 4 3 3 4 3 3 3 2 2 2 3 3 4 5 1 3 5 4 2 1 1 4 3 4 7 10 11 10 8 10 11 10 9 9 6 3 2 5 6 4 6 7 8 7
24 28 42 38 16 8 6 1 4 5 5 3 2 1 2 2 3 2 3 2 2 2 4 2 5 6 5 3 3 2 1 1 3 7 11 11 9 10 10 10 8 8 9 8 7 4 1 1 2 4 5 7 7 7
42 43 39 28 10 5 5 2 3 5 3 4 2 2 3 4 3 3 5 4 4 3 4 6 6 4 4 2 4 4 4 3 3 6 8 9 8 14 13 9 8 7 7 8 5 6 2 3 2 4 5 6 7 7
34 25 27 13 5 6 4 4 3 4 2 2 1 3 2 2 1 3 3 4 3 6 5 5 4 5 6 4 3 4 4 4 5 5 7 9 8 7 9 8 8 8 6 6 6 5 4 3 1 3 5 5 4 5
12 20 6 6 5 4 3 1 5 3 3 2 0 1 1 0 2 4 3 4 5 7 6 5 4 6 8 8 8 6 8 7 7 8 10 9 8 7 7 7 6 7 7 5 4 5 4 0 2 3 4 4 6 6
19 6 5 4 6 3 1 2 5 1 4 3 2 2 2 2 4 1 4 5 6 6 7 11 14 12 9 11 5 6 8 10 8 8 7 7 8 7 6 6 3 4 7 6 3 3 3 3 5 5 4 5 5 5
11 6 5 4 4 4 4 0 2 3 2 3 3 1 3 4 1 1 5 4 4 3 4 7 5 3 2 4 4 6 7 4 6 6 6 5 5 7 6 5 3 4 3 5 6 6 4 2 3 4 5 6 6 7
9 4 5 4 3 6 5 4 2 3 3 2 4 4 5 1 0 4 4 4 3 4 5 4 4 4 4 3 3 1 3 2 2 4 4 3 3 3 3 4 4 4 1 3 4 5 6 3 3 4 5 6 8 9
7 4 7 7 3 7 7 6 7 6 4 2 6 4 1 3 1 7 4 3 3 3 4 4 5 3 2 3 3 2 2 1 2 2 3 1 1 2 4 4 4 5 4 5 4 5 5 5 5 8 8 10 16 11
6 5 3 1 6 6 4 3 3 4 6 6 4 4 4 3 7 6 4 3 3 4 4 5 5 5 5 4 3 4 3 3 4 4 4 4 4 4 4 4 7 6 3 6 6 6 6 6 6 7 8 6 9 11
5 5 10 7 4 3 6 4 5 7 6 5 5 5 8 9 6 4 5 4 4 4 4 4 3 3 4 4 4 4 4 4 5 4 4 5 5 4 5 5 6 11 6 6 6 6 6 6 7 7 9 8 7 9
3 3 8 4 4 3 5 7 8 7 6 6 8 5 5 5 3 3 3 3 3 4 3 3 5 4 4 4 4 4 4 3 3 8 11 8 7 7 4 5 5 4 4 5 8 8 8 6 5 6 7 6 7 6
4 3 5 6 8 8 7 6 4 3 3 4 4 1 1 3 4 2 3 2 3 5 8 8 6 4 5 5 6 7 5 6 8 9 10 11 10 7 4 5 5 4 4 5 5 6 8 5 4 4 4 3 4 5
6 3 4 4 5 4 3 5 2 2 3 3 2 4 6 4 3 4 5 5 6 7 5 7 8 8 9 10 10 11 12 8 11 13 12 9 9 9 6 5 5 4 4 5 5 5 5 4 4 5 6 8 10 11
4 5 5 4 3 1 3 5 5 4 3 4 4 2 1 1 7 5 5 7 10 11 16 15 12 13 13 11 9 10 17 10 8 8 10 8 8 9 8 6 5 4 5 5 5 5 5 7 5 6 6 8 8 10
3 3 3 4 3 5 4 5 3 2 2 3 5 7 8 7 9 6 4 8 12 13 12 11 11 11 12 12 11 10 12 10 15 18 20 20 19 15 9 7 5 6 7 7 6 6 8 9 8 9 9 9 9 9
Wind_Direction
199 197 197 201 201 200 200 197 202 194 179 157 152 118 67 53 29 33 301 342 290 214 279 222 221 195 29 128 154 158 76 327 45 129 144 212 198 219 147 162 176 164 144 191 91 100 275 148 81 170 212 150 160 159
197 195 196 198 200 196 194 194 198 189 183 164 164 153 94 51 25 39 108 18 329 242 285 287 273 267 184 178 143 212 177 159 183 106 242 87 224 175 167 218 92 214 185 179 183 211 239 207 197 211 174 161 196 168
195 194 195 197 196 193 191 190 194 190 188 177 158 142 127 99 35 59 126 36 309 333 290 283 241 191 147 198 180 138 274 195 186 179 159 207 235 131 173 233 177 236 169 208 96 245 228 224 239 250 200 209 188 165
191 194 192 194 192 193 191 186 188 189 181 178 167 144 132 147 98 53 90 147 107 298 257 266 352 221 174 180 175 184 149 79 81 88 140 162 185 174 226 249 200 190 137 181 263 277 295 251 225 219 210 199 167 150
187 190 192 190 187 189 190 185 183 188 183 183 172 146 132 143 75 78 182 222 215 267 306 283 292 237 180 181 196 177 168 147 139 70 146 221 201 140 220 30 249 192 183 174 218 220 183 249 234 171 180 200 183 158
184 183 190 189 185 186 185 183 178 184 181 173 170 153 138 94 75 72 11 61 199 191 278 298 312 247 190 184 201 189 164 150 134 167 218 239 245 143 179 230 242 212 220 205 231 199 214 285 296 189 201 184 173 176
183 184 186 186 184 184 182 178 175 179 179 174 167 177 170 137 96 149 178 108 91 70 145 282 265 344 186 132 179 172 122 164 160 205 231 209 230 144 156 233 270 245 235 240 227 134 266 198 238 185 176 156 163 148
181 183 182 181 183 181 181 174 173 175 173 171 163 157 135 224 25 316 289 305 147 136 3 261 270 337 179 153 215 189 105 93 263 265 354 191 63 101 252 235 235 247 254 259 227 212 227 69 121 157 133 141 155 173
180 181 177 176 180 178 172 172 170 170 165 161 153 119 61 67 118 232 136 128 17 125 210 231 250 239 352 12 52 353 171 122 32 258 246 131 187 223 212 207 220 231 224 241 237 217 204 212 207 184 164 178 181 186
177 175 171 173 179 174 169 169 165 162 155 138 97 116 312 211 80 123 106 150 205 209 213 239 242 258 120 112 302 108 270 176 212 228 124 187 248 248 225 235 256 248 225 213 167 243 212 227 210 194 202 193 203 185
175 172 170 170 176 173 166 163 158 146 123 105 139 164 220 347 95 191 158 167 188 242 207 222 200 176 201 138 193 207 218 189 225 256 172 241 253 231 213 234 242 241 236 221 222 235 215 211 200 187 199 197 185 177
167 167 165 167 170 170 163 156 147 123 157 170 138 105 64 61 107 174 201 145 199 235 209 213 227 211 257 136 126 206 218 185 239 120 139 255 252 213 211 223 236 235 234 232 219 234 223 202 186 191 196 193 192 183
167 163 163 164 166 164 158 151 145 134 112 61 58 60 93 269 185 197 194 187 198 199 207 222 178 192 133 117 166 177 224 222 96 153 227 237 272 270 226 224 238 246 249 233 229 218 205 205 186 189 198 190 180 174
160 162 158 160 166 160 151 146 147 134 92 97 130 150 193 188 219 192 182 126 150 173 231 224 175 152 280 193 175 219 221 146 243 234 237 250 336 333 324 283 274 280 223 223 230 219 215 208 211 205 203 174 171 179
157 153 153 158 162 151 145 146 138 76 104 130 117 203 199 220 253 166 151 122 192 177 161 141 160 193 190 244 209 203 199 237 211 234 257 331 327 327 333 338 335 328 307 264 252 222 217 218 196 200 181 172 178 171
147 145 152 158 151 143 143 136 86 79 48 108 78 86 226 139 274 174 181 223 192 124 195 156 215 216 226 221 196 216 213 233 277 287 302 325 332 343 339 329 319 315 310 295 281 251 241 206 200 191 153 172 174 167
127 102 158 147 141 138 130 91 82 66 156 162 249 189 148 113 175 194 174 212 151 106 184 196 224 217 299 231 225 207 222 357 308 332 331 309 310 329 334 334 331 329 326 323 308 297 252 161 138 145 171 173 160 167
116 144 141 138 129 117 47 61 92 110 169 209 160 199 175 172 154 203 221 171 122 146 139 210 313 228 221 229 184 72 344 306 303 337 323 321 330 337 331 324 330 336 329 324 322 323 123 143 157 165 131 133 125 135
141 138 141 140 129 112 113 147 101 150 215 203 194 178 150 198 212 197 180 198 159 152 112 158 236 219 226 229 217 221 210 337 347 348 327 311 322 328 324 324 322 342 326 330 337 342 6 152 160 136 135 149 152 152
141 143 142 142 98 80 89 81 98 113 166 218 113 162 177 194 185 191 209 174 153 154 201 220 213 212 216 200 198 208 224 233 271 320 307 300 334 332 334 328 324 329 349 350 353 356 22 68 96 127 141 142 143 160
132 137 124 105 66 68 100 145 148 183 171 175 219 167 215 61 179 179 212 160 173 212 223 215 211 241 257 235 224 227 245 226 253 260 285 299 311 318 300 318 336 347 1 339 335 328 337 298 182 146 145 142 146 152
115 122 92 50 77 52 80 199 145 190 126 190 135 137 141 268 232 220 164 181 225 228 213 225 221 230 250 258 258 236 252 246 256 274 269 265 277 290 303 314 335 324 318 300 301 305 310 311 159 151 135 133 139 135
111 102 66 83 99 73 91 54 78 118 131 245 31 56 293 264 232 116 242 216 228 204 202 217 229 237 236 256 260 247 236 254 267 265 261 253 253 262 270 285 291 299 307 311 321 307 291 247 175 145 136 131 132 137
89 77 104 117 98 105 127 120 35 95 52 82 105 280 272 224 289 233 245 245 228 209 189 217 201 218 246 248 247 256 264 241 249 262 248 235 247 261 249 270 280 259 252 296 310 304 306 294 182 150 147 156 158 160
95 137 123 109 52 106 106 142 153 101 166 162 89 287 261 107 142 263 242 261 237 227 214 171 169 194 207 223 222 255 294 192 242 263 295 237 269 299 303 283 286 269 229 267 273 288 291 281 194 185 172 164 172 179
103 160 138 163 181 129 164 130 172 165 134 142 222 240 104 119 167 246 239 231 228 231 188 177 159 143 147 177 144 215 265 274 286 302 288 65 320 272 292 301 297 297 226 221 244 235 226 242 219 201 196 192 190 176
125 180 229 266 126 126 108 127 140 137 164 180 205 171 133 192 237 247 263 230 211 212 174 158 158 158 171 191 222 246 257 259 231 245 269 262 241 216 210 250 272 264 250 236 235 239 237 224 230 212 204 182 191 187
155 155 147 183 123 139 127 142 153 183 187 186 132 173 186 197 232 229 218 237 199 165 180 204 208 188 187 209 220 239 269 269 288 293 280 274 246 239 237 243 247 272 272 255 247 227 221 207 200 215 213 180 185 192
118 166 116 98 102 157 185 174 193 203 170 151 166 197 222 220 225 225 242 215 160 147 187 234 260 225 246 253 256 246 243 242 268 283 281 277 291 282 217 245 261 280 293 299 297 267 253 236 219 217 227 194 182 185
194 183 112 156 164 205 214 186 191 179 159 162 163 105 303 273 243 185 169 159 180 206 218 222 235 201 236 236 262 263 228 220 218 229 251 259 257 260 234 253 273 263 270 284 286 291 303 255 241 212 197 168 154 166
139 140 114 140 206 221 201 154 94 79 109 192 228 194 224 246 292 216 203 209 220 232 237 243 240 230 235 238 238 253 266 249 240 242 242 252 261 267 258 250 250 248 248 253 256 259 261 263 239 229 205 195 197 189
135 174 136 133 238 233 139 162 164 178 206 187 238 151 82 194 252 262 214 211 234 238 240 242 243 246 241 247 246 244 247 253 246 241 233 237 241 247 253 244 241 238 244 251 244 243 235 231 237 231 241 240 222 202
93 126 134 131 143 183 184 117 125 292 318 244 233 208 215 217 235 236 259 220 221 227 233 233 235 241 244 243 239 243 242 243 245 246 246 246 245 243 246 245 223 213 228 240 243 227 229 220 216 217 220 223 231 228